Time,TemperatureF,DewpointF,PressureIn,WindDirection,WindDirectionDegrees,WindSpeedMPH,WindSpeedGustMPH,Humidity,HourlyPrecipIn,Conditions,Clouds,dailyrainin,SoftwareType,DateUTC
2013-04-06 00:02:00,48.2,48.2,29.71,SE,135,1.5,3.0,100,0.03,,,0.02,NetBSD+Arduino,2013-04-06 07:02:00,
2013-04-06 00:07:00,48.2,48.2,29.70,South,180,3.0,4.5,100,0.03,,,0.02,NetBSD+Arduino,2013-04-06 07:07:00,
2013-04-06 00:12:00,48.2,48.2,29.70,SE,135,1.5,3.0,100,0.03,,,0.02,NetBSD+Arduino,2013-04-06 07:12:00,
2013-04-06 00:17:00,48.1,48.1,29.70,SE,135,1.5,4.5,100,0.05,,,0.03,NetBSD+Arduino,2013-04-06 07:17:00,
2013-04-06 00:22:00,48.1,48.1,29.70,South,180,1.5,4.5,100,0.05,,,0.03,NetBSD+Arduino,2013-04-06 07:22:00,
2013-04-06 00:27:00,48.1,48.1,29.70,South,180,1.5,4.5,100,0.05,,,0.03,NetBSD+Arduino,2013-04-06 07:27:00,
2013-04-06 00:32:00,48.0,48.0,29.70,South,180,3.0,3.0,100,0.05,,,0.03,NetBSD+Arduino,2013-04-06 07:32:00,
2013-04-06 00:37:00,48.0,48.0,29.70,East,90,0.0,4.5,100,0.06,,,0.05,NetBSD+Arduino,2013-04-06 07:37:00,
2013-04-06 00:43:00,48.0,48.0,29.69,SE,135,0.0,4.5,100,0.06,,,0.05,NetBSD+Arduino,2013-04-06 07:43:00,
2013-04-06 00:48:00,48.0,48.0,29.69,South,180,3.0,4.5,100,0.06,,,0.05,NetBSD+Arduino,2013-04-06 07:48:00,
2013-04-06 00:53:00,48.0,48.0,29.69,South,180,3.0,4.5,100,0.06,,,0.05,NetBSD+Arduino,2013-04-06 07:53:00,
2013-04-06 00:58:00,48.0,48.0,29.69,SE,135,3.0,7.5,100,0.05,,,0.05,NetBSD+Arduino,2013-04-06 07:58:00,
2013-04-06 01:03:00,48.0,48.0,29.68,South,180,0.0,6.0,100,0.03,,,0.05,NetBSD+Arduino,2013-04-06 08:03:00,
2013-04-06 01:08:00,48.0,48.0,29.67,SE,135,3.0,6.0,100,0.03,,,0.05,NetBSD+Arduino,2013-04-06 08:08:00,
2013-04-06 01:13:00,48.0,48.0,29.67,SE,135,3.0,9.0,100,0.03,,,0.05,NetBSD+Arduino,2013-04-06 08:13:00,
2013-04-06 01:18:00,48.0,48.0,29.67,SE,135,3.0,9.0,100,0.02,,,0.05,NetBSD+Arduino,2013-04-06 08:18:00,
2013-04-06 01:23:00,48.0,48.0,29.67,SE,135,4.5,10.4,100,0.02,,,0.05,NetBSD+Arduino,2013-04-06 08:23:00,
2013-04-06 01:28:00,48.0,48.0,29.67,South,180,7.5,7.5,100,0.02,,,0.05,NetBSD+Arduino,2013-04-06 08:28:00,
2013-04-06 01:33:00,48.0,48.0,29.67,East,90,3.0,7.5,100,0.02,,,0.05,NetBSD+Arduino,2013-04-06 08:33:00,
2013-04-06 01:38:00,48.0,48.0,29.67,South,180,6.0,9.0,100,0.00,,,0.05,NetBSD+Arduino,2013-04-06 08:38:00,
2013-04-06 01:43:00,48.1,48.1,29.67,SE,135,3.0,9.0,100,0.00,,,0.05,NetBSD+Arduino,2013-04-06 08:43:00,
2013-04-06 01:48:00,48.0,48.0,29.66,SE,135,6.0,7.5,100,0.00,,,0.05,NetBSD+Arduino,2013-04-06 08:48:00,
2013-04-06 01:53:00,48.0,48.0,29.66,South,180,4.5,10.4,100,0.00,,,0.05,NetBSD+Arduino,2013-04-06 08:53:00,
2013-04-06 01:58:00,48.0,48.0,29.66,SE,135,4.5,9.0,100,0.02,,,0.06,NetBSD+Arduino,2013-04-06 08:58:00,
2013-04-06 02:03:00,48.0,48.0,29.66,South,180,3.0,10.4,100,0.02,,,0.06,NetBSD+Arduino,2013-04-06 09:03:00,
2013-04-06 02:08:00,48.1,48.1,29.66,South,180,4.5,9.0,100,0.02,,,0.06,NetBSD+Arduino,2013-04-06 09:08:00,
2013-04-06 02:13:00,48.4,48.4,29.66,South,180,6.0,14.9,100,0.02,,,0.06,NetBSD+Arduino,2013-04-06 09:13:00,
2013-04-06 02:19:00,48.7,48.5,29.66,South,180,4.5,16.4,99,0.02,,,0.06,NetBSD+Arduino,2013-04-06 09:19:00,
2013-04-06 02:24:00,49.0,48.3,29.66,SW,225,10.4,19.4,97,0.02,,,0.06,NetBSD+Arduino,2013-04-06 09:24:00,
2013-04-06 02:29:00,49.2,48.5,29.67,SE,135,4.5,19.4,97,0.02,,,0.06,NetBSD+Arduino,2013-04-06 09:29:00,
2013-04-06 02:35:00,49.3,48.7,29.68,South,180,7.5,22.4,97,0.03,,,0.08,NetBSD+Arduino,2013-04-06 09:35:00,
2013-04-06 02:41:00,49.2,48.6,29.69,South,180,7.5,17.9,97,0.05,,,0.10,NetBSD+Arduino,2013-04-06 09:41:00,
2013-04-06 02:46:00,49.1,48.6,29.69,South,180,17.9,20.9,98,0.06,,,0.11,NetBSD+Arduino,2013-04-06 09:46:00,
2013-04-06 02:52:00,49.2,48.4,29.69,South,180,9.0,20.9,96,0.06,,,0.11,NetBSD+Arduino,2013-04-06 09:52:00,
2013-04-06 02:57:00,49.2,48.6,29.69,SE,135,4.5,17.9,97,0.05,,,0.11,NetBSD+Arduino,2013-04-06 09:57:00,
2013-04-06 03:02:00,49.2,48.6,29.69,SW,225,6.0,17.9,97,0.05,,,0.11,NetBSD+Arduino,2013-04-06 10:02:00,
2013-04-06 03:07:00,49.2,48.6,29.70,South,180,14.9,17.9,97,0.05,,,0.11,NetBSD+Arduino,2013-04-06 10:07:00,
2013-04-06 03:13:00,49.2,48.4,29.70,South,180,10.4,22.4,96,0.05,,,0.11,NetBSD+Arduino,2013-04-06 10:13:00,
2013-04-06 03:18:00,49.2,48.4,29.70,South,180,3.0,16.4,96,0.05,,,0.11,NetBSD+Arduino,2013-04-06 10:18:00,
2013-04-06 03:24:00,49.1,48.3,29.70,South,180,10.4,17.9,96,0.05,,,0.11,NetBSD+Arduino,2013-04-06 10:24:00,
2013-04-06 03:29:00,49.2,48.2,29.71,South,180,16.4,17.9,96,0.05,,,0.11,NetBSD+Arduino,2013-04-06 10:29:00,
2013-04-06 03:34:00,49.4,48.2,29.72,South,180,4.5,19.4,95,0.03,,,0.11,NetBSD+Arduino,2013-04-06 10:34:00,
2013-04-06 03:40:00,49.2,48.3,29.72,South,180,9.0,14.9,96,0.02,,,0.11,NetBSD+Arduino,2013-04-06 10:40:00,
2013-04-06 03:45:00,49.2,48.3,29.72,South,180,6.0,14.9,96,0.02,,,0.11,NetBSD+Arduino,2013-04-06 10:45:00,
2013-04-06 03:51:00,49.2,48.1,29.72,South,180,4.5,17.9,95,0.00,,,0.11,NetBSD+Arduino,2013-04-06 10:51:00,
2013-04-06 03:56:00,49.3,47.9,29.72,South,180,4.5,20.9,94,0.00,,,0.11,NetBSD+Arduino,2013-04-06 10:56:00,
2013-04-06 04:01:00,49.1,48.0,29.73,South,180,9.0,16.4,96,0.00,,,0.11,NetBSD+Arduino,2013-04-06 11:01:00,
2013-04-06 04:06:00,49.2,48.1,29.73,SW,225,3.0,16.4,96,0.00,,,0.11,NetBSD+Arduino,2013-04-06 11:06:00,
2013-04-06 04:11:00,49.2,48.0,29.73,South,180,9.0,14.9,95,0.00,,,0.11,NetBSD+Arduino,2013-04-06 11:11:00,
2013-04-06 04:16:00,49.1,48.0,29.73,South,180,7.5,17.9,96,0.00,,,0.11,NetBSD+Arduino,2013-04-06 11:16:00,
2013-04-06 04:21:00,49.0,48.2,29.74,South,180,10.4,16.4,96,0.00,,,0.11,NetBSD+Arduino,2013-04-06 11:21:00,
2013-04-06 04:26:00,49.0,47.9,29.74,SW,225,10.4,19.4,96,0.00,,,0.11,NetBSD+Arduino,2013-04-06 11:26:00,
2013-04-06 04:31:00,49.0,47.9,29.74,South,180,10.4,19.4,95,0.00,,,0.11,NetBSD+Arduino,2013-04-06 11:31:00,
2013-04-06 04:33:00,49.0,47.9,29.74,South,180,7.5,16.4,96,0.00,,,0.11,NetBSD+Arduino,2013-04-06 11:33:00,
2013-04-06 04:39:00,49.1,47.6,29.75,SW,225,6.0,16.4,94,0.00,,,0.11,NetBSD+Arduino,2013-04-06 11:39:00,
2013-04-06 04:44:00,49.2,47.6,29.75,South,180,9.0,16.4,94,0.00,,,0.11,NetBSD+Arduino,2013-04-06 11:44:00,
2013-04-06 04:49:00,49.2,47.4,29.75,South,180,9.0,17.9,93,0.00,,,0.11,NetBSD+Arduino,2013-04-06 11:49:00,
2013-04-06 04:54:00,49.2,47.7,29.75,South,180,7.5,19.4,94,0.00,,,0.11,NetBSD+Arduino,2013-04-06 11:54:00,
2013-04-06 04:59:00,48.9,47.8,29.75,SW,225,4.5,17.9,96,0.00,,,0.11,NetBSD+Arduino,2013-04-06 11:59:00,
2013-04-06 05:05:00,48.2,46.9,29.77,SW,225,6.0,17.9,95,0.00,,,0.11,NetBSD+Arduino,2013-04-06 12:05:00,
2013-04-06 05:10:00,47.5,46.6,29.77,SW,225,7.5,14.9,96,0.02,,,0.13,NetBSD+Arduino,2013-04-06 12:10:00,
2013-04-06 05:16:00,46.9,46.0,29.77,West,270,6.0,13.4,96,0.03,,,0.14,NetBSD+Arduino,2013-04-06 12:16:00,
2013-04-06 05:21:00,46.8,46.1,29.76,SW,225,11.9,11.9,97,0.03,,,0.14,NetBSD+Arduino,2013-04-06 12:21:00,
2013-04-06 05:26:00,46.6,45.5,29.77,North,0,1.5,10.4,96,0.03,,,0.14,NetBSD+Arduino,2013-04-06 12:26:00,
2013-04-06 05:31:00,46.4,45.3,29.76,SW,225,1.5,16.4,95,0.03,,,0.14,NetBSD+Arduino,2013-04-06 12:31:00,
2013-04-06 05:37:00,46.2,45.1,29.76,SW,225,0.0,14.9,95,0.03,,,0.14,NetBSD+Arduino,2013-04-06 12:37:00,
2013-04-06 05:42:00,46.2,45.0,29.77,West,270,1.5,10.4,95,0.03,,,0.14,NetBSD+Arduino,2013-04-06 12:42:00,
2013-04-06 05:47:00,46.1,44.7,29.77,West,270,0.0,9.0,94,0.03,,,0.14,NetBSD+Arduino,2013-04-06 12:47:00,
2013-04-06 05:52:00,45.9,44.7,29.77,SW,225,3.0,10.4,95,0.03,,,0.14,NetBSD+Arduino,2013-04-06 12:52:00,
2013-04-06 05:57:00,45.8,44.8,29.77,SW,225,1.5,13.4,96,0.03,,,0.14,NetBSD+Arduino,2013-04-06 12:57:00,
2013-04-06 06:02:00,45.9,44.7,29.78,West,270,3.0,10.4,95,0.03,,,0.14,NetBSD+Arduino,2013-04-06 13:02:00,
2013-04-06 06:07:00,45.8,44.5,29.78,South,180,3.0,17.9,95,0.02,,,0.14,NetBSD+Arduino,2013-04-06 13:07:00,
2013-04-06 06:13:00,45.8,45.0,29.78,South,180,0.0,11.9,97,0.00,,,0.14,NetBSD+Arduino,2013-04-06 13:13:00,
2013-04-06 06:18:00,45.9,44.8,29.79,West,270,1.5,11.9,95,0.00,,,0.14,NetBSD+Arduino,2013-04-06 13:18:00,
2013-04-06 06:23:00,45.9,44.8,29.79,SW,225,1.5,9.0,95,0.00,,,0.14,NetBSD+Arduino,2013-04-06 13:23:00,
2013-04-06 06:29:00,46.0,44.4,29.78,South,180,4.5,13.4,94,0.00,,,0.14,NetBSD+Arduino,2013-04-06 13:29:00,
2013-04-06 06:34:00,46.0,44.6,29.78,South,180,4.5,17.9,94,0.00,,,0.14,NetBSD+Arduino,2013-04-06 13:34:00,
2013-04-06 06:40:00,45.9,44.5,29.77,South,180,9.0,14.9,94,0.00,,,0.14,NetBSD+Arduino,2013-04-06 13:40:00,
2013-04-06 06:46:00,45.8,44.4,29.77,South,180,9.0,11.9,94,0.00,,,0.14,NetBSD+Arduino,2013-04-06 13:46:00,
2013-04-06 06:51:00,45.6,44.2,29.77,South,180,6.0,14.9,94,0.00,,,0.14,NetBSD+Arduino,2013-04-06 13:51:00,
2013-04-06 06:56:00,45.6,44.5,29.77,South,180,6.0,13.4,95,0.00,,,0.14,NetBSD+Arduino,2013-04-06 13:56:00,
2013-04-06 07:01:00,45.8,44.2,29.77,South,180,3.0,11.9,94,0.00,,,0.14,NetBSD+Arduino,2013-04-06 14:01:00,
2013-04-06 07:07:00,45.9,44.2,29.77,South,180,7.5,14.9,94,0.00,,,0.14,NetBSD+Arduino,2013-04-06 14:07:00,
2013-04-06 07:12:00,45.8,44.2,29.77,East,90,3.0,11.9,94,0.00,,,0.14,NetBSD+Arduino,2013-04-06 14:12:00,
2013-04-06 07:17:00,45.8,44.2,29.77,South,180,3.0,19.4,94,0.00,,,0.14,NetBSD+Arduino,2013-04-06 14:17:00,
2013-04-06 07:22:00,45.9,44.3,29.78,SW,225,6.0,11.9,94,0.00,,,0.14,NetBSD+Arduino,2013-04-06 14:22:00,
2013-04-06 07:27:00,45.9,44.3,29.78,South,180,14.9,20.9,94,0.00,,,0.14,NetBSD+Arduino,2013-04-06 14:27:00,
2013-04-06 07:32:00,45.8,44.4,29.79,South,180,4.5,16.4,94,0.00,,,0.14,NetBSD+Arduino,2013-04-06 14:32:00,
2013-04-06 07:37:00,45.7,44.2,29.79,SW,225,13.4,16.4,94,0.00,,,0.14,NetBSD+Arduino,2013-04-06 14:37:00,
2013-04-06 07:42:00,45.8,44.2,29.79,South,180,3.0,19.4,94,0.00,,,0.14,NetBSD+Arduino,2013-04-06 14:42:00,
2013-04-06 07:48:00,46.1,44.7,29.79,South,180,1.5,13.4,94,0.00,,,0.14,NetBSD+Arduino,2013-04-06 14:48:00,
2013-04-06 07:53:00,46.3,44.7,29.79,SE,135,11.9,17.9,94,0.00,,,0.14,NetBSD+Arduino,2013-04-06 14:53:00,
2013-04-06 07:58:00,46.4,44.5,29.79,South,180,10.4,14.9,93,0.00,,,0.14,NetBSD+Arduino,2013-04-06 14:58:00,
2013-04-06 08:04:00,46.5,45.0,29.79,South,180,4.5,19.4,94,0.00,,,0.14,NetBSD+Arduino,2013-04-06 15:04:00,
2013-04-06 08:09:00,46.9,44.9,29.80,South,180,4.5,19.4,92,0.00,,,0.14,NetBSD+Arduino,2013-04-06 15:09:00,
2013-04-06 08:14:00,47.1,45.3,29.79,West,270,3.0,11.9,93,0.00,,,0.14,NetBSD+Arduino,2013-04-06 15:14:00,
2013-04-06 08:20:00,47.3,45.7,29.80,South,180,1.5,11.9,94,0.00,,,0.14,NetBSD+Arduino,2013-04-06 15:20:00,
2013-04-06 08:25:00,47.1,45.4,29.79,SW,225,1.5,17.9,93,0.00,,,0.14,NetBSD+Arduino,2013-04-06 15:25:00,
2013-04-06 08:31:00,47.1,45.5,29.80,SW,225,3.0,13.4,94,0.00,,,0.14,NetBSD+Arduino,2013-04-06 15:31:00,
2013-04-06 08:36:00,47.4,45.5,29.80,South,180,4.5,17.9,93,0.00,,,0.14,NetBSD+Arduino,2013-04-06 15:36:00,
2013-04-06 08:41:00,47.5,45.7,29.81,South,180,7.5,10.4,93,0.00,,,0.14,NetBSD+Arduino,2013-04-06 15:41:00,
2013-04-06 08:46:00,47.4,45.4,29.81,South,180,4.5,14.9,92,0.00,,,0.14,NetBSD+Arduino,2013-04-06 15:46:00,
2013-04-06 08:52:00,47.5,45.4,29.82,South,180,4.5,17.9,92,0.00,,,0.14,NetBSD+Arduino,2013-04-06 15:52:00,
2013-04-06 08:57:00,47.2,44.7,29.82,SE,135,6.0,20.9,91,0.00,,,0.14,NetBSD+Arduino,2013-04-06 15:57:00,
2013-04-06 09:02:00,47.3,44.8,29.82,South,180,4.5,14.9,91,0.00,,,0.14,NetBSD+Arduino,2013-04-06 16:02:00,
2013-04-06 09:07:00,47.4,44.9,29.82,South,180,6.0,16.4,91,0.00,,,0.14,NetBSD+Arduino,2013-04-06 16:07:00,
2013-04-06 09:13:00,48.1,45.1,29.82,South,180,3.0,10.4,89,0.00,,,0.14,NetBSD+Arduino,2013-04-06 16:13:00,
2013-04-06 09:18:00,49.2,45.8,29.82,SW,225,9.0,19.4,87,0.00,,,0.14,NetBSD+Arduino,2013-04-06 16:18:00,
2013-04-06 09:24:00,50.1,46.1,29.82,SW,225,3.0,16.4,85,0.00,,,0.14,NetBSD+Arduino,2013-04-06 16:24:00,
2013-04-06 09:29:00,49.4,45.7,29.82,South,180,3.0,13.4,87,0.00,,,0.14,NetBSD+Arduino,2013-04-06 16:29:00,
2013-04-06 09:34:00,49.1,45.6,29.83,South,180,7.5,10.4,87,0.00,,,0.14,NetBSD+Arduino,2013-04-06 16:34:00,
2013-04-06 09:39:00,48.5,45.3,29.83,SW,225,1.5,19.4,88,0.00,,,0.14,NetBSD+Arduino,2013-04-06 16:39:00,
2013-04-06 09:44:00,49.0,45.6,29.84,SE,135,6.0,17.9,87,0.00,,,0.14,NetBSD+Arduino,2013-04-06 16:44:00,
2013-04-06 09:50:00,49.2,45.6,29.84,South,180,7.5,13.4,87,0.00,,,0.14,NetBSD+Arduino,2013-04-06 16:50:00,
2013-04-06 09:55:00,49.0,45.5,29.84,West,270,4.5,19.4,87,0.00,,,0.14,NetBSD+Arduino,2013-04-06 16:55:00,
2013-04-06 10:00:00,49.7,46.5,29.84,South,180,7.5,16.4,88,0.00,,,0.14,NetBSD+Arduino,2013-04-06 17:00:00,
2013-04-06 10:06:00,51.5,46.8,29.84,South,180,9.0,14.9,83,0.00,,,0.14,NetBSD+Arduino,2013-04-06 17:06:00,
2013-04-06 10:11:00,51.4,45.9,29.84,South,180,11.9,22.4,81,0.00,,,0.14,NetBSD+Arduino,2013-04-06 17:11:00,
2013-04-06 10:16:00,52.0,46.5,29.84,South,180,4.5,16.4,81,0.00,,,0.14,NetBSD+Arduino,2013-04-06 17:16:00,
2013-04-06 10:21:00,52.7,46.7,29.84,South,180,13.4,16.4,79,0.00,,,0.14,NetBSD+Arduino,2013-04-06 17:21:00,
2013-04-06 10:26:00,53.9,47.3,29.84,South,180,11.9,14.9,78,0.00,,,0.14,NetBSD+Arduino,2013-04-06 17:26:00,
2013-04-06 10:31:00,54.1,47.2,29.85,SW,225,6.0,20.9,77,0.00,,,0.14,NetBSD+Arduino,2013-04-06 17:31:00,
2013-04-06 10:36:00,55.4,48.2,29.85,West,270,7.5,13.4,76,0.00,,,0.14,NetBSD+Arduino,2013-04-06 17:36:00,
2013-04-06 10:41:00,55.4,47.6,29.85,South,180,7.5,13.4,74,0.00,,,0.14,NetBSD+Arduino,2013-04-06 17:41:00,
2013-04-06 10:46:00,55.4,47.1,29.86,South,180,4.5,14.9,73,0.00,,,0.14,NetBSD+Arduino,2013-04-06 17:46:00,
2013-04-06 10:51:00,54.2,47.3,29.86,South,180,1.5,16.4,77,0.00,,,0.14,NetBSD+Arduino,2013-04-06 17:51:00,
2013-04-06 10:56:00,53.6,46.3,29.86,SE,135,6.0,17.9,76,0.00,,,0.14,NetBSD+Arduino,2013-04-06 17:56:00,
2013-04-06 11:01:00,53.8,46.3,29.87,South,180,11.9,20.9,75,0.00,,,0.14,NetBSD+Arduino,2013-04-06 18:01:00,
2013-04-06 11:06:00,52.4,45.8,29.87,NW,315,1.5,13.4,78,0.00,,,0.14,NetBSD+Arduino,2013-04-06 18:06:00,
2013-04-06 11:11:00,52.2,45.7,29.86,South,180,9.0,17.9,78,0.00,,,0.14,NetBSD+Arduino,2013-04-06 18:11:00,
2013-04-06 11:16:00,53.0,45.8,29.87,South,180,3.0,17.9,76,0.00,,,0.14,NetBSD+Arduino,2013-04-06 18:16:00,
2013-04-06 11:23:00,53.8,45.6,29.87,North,0,3.0,11.9,73,0.00,,,0.14,NetBSD+Arduino,2013-04-06 18:23:00,
2013-04-06 11:28:00,52.4,45.6,29.87,South,180,3.0,14.9,77,0.00,,,0.14,NetBSD+Arduino,2013-04-06 18:28:00,
2013-04-06 11:33:00,50.5,45.6,29.87,SE,135,7.5,17.9,83,0.00,,,0.14,NetBSD+Arduino,2013-04-06 18:33:00,
2013-04-06 11:38:00,49.8,46.6,29.87,NW,315,1.5,16.4,88,0.00,,,0.14,NetBSD+Arduino,2013-04-06 18:38:00,
2013-04-06 11:43:00,47.4,45.3,29.88,SW,225,3.0,9.0,92,0.03,,,0.18,NetBSD+Arduino,2013-04-06 18:43:00,
2013-04-06 11:48:00,46.4,45.4,29.89,South,180,6.0,7.5,96,0.08,,,0.22,NetBSD+Arduino,2013-04-06 18:48:00,
2013-04-06 11:53:00,45.6,44.5,29.89,SW,225,4.5,10.4,95,0.10,,,0.24,NetBSD+Arduino,2013-04-06 18:53:00,
2013-04-06 11:58:00,45.9,45.1,29.89,West,270,0.0,6.0,97,0.10,,,0.24,NetBSD+Arduino,2013-04-06 18:58:00,
2013-04-06 12:03:00,46.1,45.6,29.89,SW,225,1.5,7.5,98,0.11,,,0.26,NetBSD+Arduino,2013-04-06 19:03:00,
2013-04-06 12:09:00,46.2,45.7,29.89,NW,315,3.0,10.4,98,0.11,,,0.26,NetBSD+Arduino,2013-04-06 19:09:00,
2013-04-06 12:14:00,45.9,45.2,29.89,West,270,3.0,9.0,97,0.13,,,0.27,NetBSD+Arduino,2013-04-06 19:14:00,
2013-04-06 12:20:00,45.7,45.0,29.89,West,270,1.5,7.5,97,0.14,,,0.29,NetBSD+Arduino,2013-04-06 19:20:00,
2013-04-06 12:25:00,45.9,45.1,29.89,West,270,3.0,10.4,96,0.16,,,0.30,NetBSD+Arduino,2013-04-06 19:25:00,
2013-04-06 12:30:00,46.9,46.3,29.89,SW,225,1.5,10.4,97,0.16,,,0.30,NetBSD+Arduino,2013-04-06 19:30:00,
2013-04-06 12:35:00,47.1,46.2,29.89,SE,135,6.0,10.4,96,0.16,,,0.30,NetBSD+Arduino,2013-04-06 19:35:00,
2013-04-06 12:40:00,47.1,46.4,29.88,South,180,1.5,9.0,97,0.14,,,0.30,NetBSD+Arduino,2013-04-06 19:40:00,
2013-04-06 12:46:00,47.2,46.1,29.88,South,180,6.0,9.0,95,0.10,,,0.30,NetBSD+Arduino,2013-04-06 19:46:00,
2013-04-06 12:51:00,47.2,46.5,29.89,South,180,0.0,9.0,97,0.06,,,0.30,NetBSD+Arduino,2013-04-06 19:51:00,
2013-04-06 12:56:00,47.1,46.2,29.89,South,180,1.5,7.5,96,0.06,,,0.30,NetBSD+Arduino,2013-04-06 19:56:00,
2013-04-06 13:01:00,47.4,46.7,29.89,West,270,0.0,6.0,97,0.05,,,0.30,NetBSD+Arduino,2013-04-06 20:01:00,
2013-04-06 13:06:00,47.0,45.9,29.89,SW,225,3.0,9.0,95,0.05,,,0.30,NetBSD+Arduino,2013-04-06 20:06:00,
2013-04-06 13:11:00,46.3,45.4,29.89,West,270,4.5,9.0,96,0.06,,,0.32,NetBSD+Arduino,2013-04-06 20:11:00,
2013-04-06 13:16:00,46.2,45.7,29.90,NW,315,1.5,9.0,98,0.06,,,0.34,NetBSD+Arduino,2013-04-06 20:16:00,
2013-04-06 13:21:00,46.2,45.7,29.90,West,270,0.0,6.0,98,0.05,,,0.34,NetBSD+Arduino,2013-04-06 20:21:00,
2013-04-06 13:27:00,46.1,45.8,29.90,SW,225,1.5,6.0,98,0.05,,,0.35,NetBSD+Arduino,2013-04-06 20:27:00,
2013-04-06 13:32:00,45.8,45.3,29.90,South,180,6.0,10.4,98,0.06,,,0.37,NetBSD+Arduino,2013-04-06 20:32:00,
2013-04-06 13:38:00,45.4,44.8,29.90,West,270,1.5,11.9,97,0.10,,,0.40,NetBSD+Arduino,2013-04-06 20:38:00,
2013-04-06 13:44:00,45.4,44.8,29.90,South,180,4.5,9.0,97,0.10,,,0.40,NetBSD+Arduino,2013-04-06 20:44:00,
2013-04-06 13:49:00,45.4,44.6,29.90,South,180,4.5,14.9,97,0.10,,,0.40,NetBSD+Arduino,2013-04-06 20:49:00,
2013-04-06 13:54:00,45.5,44.8,29.90,South,180,6.0,13.4,97,0.10,,,0.40,NetBSD+Arduino,2013-04-06 20:54:00,
2013-04-06 14:00:00,46.7,46.0,29.90,South,180,6.0,19.4,97,0.11,,,0.42,NetBSD+Arduino,2013-04-06 21:00:00,
2013-04-06 14:05:00,50.0,48.9,29.90,South,180,6.0,13.4,96,0.11,,,0.42,NetBSD+Arduino,2013-04-06 21:05:00,
2013-04-06 14:10:00,50.7,47.8,29.90,South,180,1.5,11.9,89,0.10,,,0.42,NetBSD+Arduino,2013-04-06 21:10:00,
2013-04-06 14:15:00,51.0,47.6,29.90,South,180,6.0,13.4,88,0.08,,,0.42,NetBSD+Arduino,2013-04-06 21:15:00,
2013-04-06 14:20:00,50.4,47.1,29.89,South,180,7.5,13.4,88,0.08,,,0.42,NetBSD+Arduino,2013-04-06 21:20:00,
2013-04-06 14:26:00,50.9,47.8,29.90,South,180,4.5,13.4,89,0.06,,,0.42,NetBSD+Arduino,2013-04-06 21:26:00,
2013-04-06 14:32:00,51.4,47.3,29.89,SW,225,6.0,16.4,85,0.05,,,0.42,NetBSD+Arduino,2013-04-06 21:32:00,
2013-04-06 14:37:00,52.1,48.5,29.89,West,270,3.0,10.4,87,0.03,,,0.42,NetBSD+Arduino,2013-04-06 21:37:00,
2013-04-06 14:42:00,52.8,49.5,29.89,SE,135,1.5,10.4,88,0.02,,,0.42,NetBSD+Arduino,2013-04-06 21:42:00,
2013-04-06 14:47:00,54.0,49.4,29.89,SW,225,3.0,10.4,84,0.02,,,0.42,NetBSD+Arduino,2013-04-06 21:47:00,
2013-04-06 14:52:00,53.9,49.0,29.89,South,180,7.5,14.9,83,0.02,,,0.42,NetBSD+Arduino,2013-04-06 21:52:00,
2013-04-06 14:57:00,54.0,49.4,29.89,SE,135,22.4,22.4,84,0.00,,,0.42,NetBSD+Arduino,2013-04-06 21:57:00,
2013-04-06 15:02:00,53.2,47.6,29.89,South,180,4.5,17.9,81,0.00,,,0.42,NetBSD+Arduino,2013-04-06 22:02:00,
2013-04-06 15:07:00,53.6,48.4,29.89,SE,135,0.0,16.4,82,0.00,,,0.42,NetBSD+Arduino,2013-04-06 22:07:00,
2013-04-06 15:12:00,53.6,47.5,29.89,South,180,7.5,13.4,79,0.00,,,0.42,NetBSD+Arduino,2013-04-06 22:12:00,
2013-04-06 15:17:00,53.4,47.7,29.89,South,180,9.0,14.9,80,0.00,,,0.42,NetBSD+Arduino,2013-04-06 22:17:00,
2013-04-06 15:22:00,53.3,48.1,29.89,South,180,3.0,17.9,81,0.00,,,0.42,NetBSD+Arduino,2013-04-06 22:22:00,
2013-04-06 15:27:00,53.2,47.3,29.89,South,180,7.5,19.4,80,0.00,,,0.42,NetBSD+Arduino,2013-04-06 22:27:00,
2013-04-06 15:32:00,52.3,46.9,29.89,South,180,7.5,14.9,81,0.00,,,0.42,NetBSD+Arduino,2013-04-06 22:32:00,
2013-04-06 15:37:00,52.5,47.0,29.89,West,270,1.5,7.5,81,0.00,,,0.42,NetBSD+Arduino,2013-04-06 22:37:00,
2013-04-06 15:43:00,53.1,48.2,29.89,South,180,1.5,10.4,83,0.00,,,0.42,NetBSD+Arduino,2013-04-06 22:43:00,
2013-04-06 15:48:00,52.8,46.8,29.89,South,180,4.5,13.4,79,0.00,,,0.42,NetBSD+Arduino,2013-04-06 22:48:00,
2013-04-06 15:53:00,52.7,47.2,29.89,South,180,7.5,17.9,81,0.00,,,0.42,NetBSD+Arduino,2013-04-06 22:53:00,
2013-04-06 15:58:00,52.7,46.7,29.89,South,180,11.9,16.4,79,0.00,,,0.42,NetBSD+Arduino,2013-04-06 22:58:00,
2013-04-06 16:03:00,52.3,45.6,29.89,West,270,4.5,20.9,78,0.00,,,0.42,NetBSD+Arduino,2013-04-06 23:03:00,
2013-04-06 16:08:00,52.0,46.3,29.89,SW,225,4.5,14.9,81,0.00,,,0.42,NetBSD+Arduino,2013-04-06 23:08:00,
2013-04-06 16:13:00,51.9,47.0,29.89,SW,225,4.5,11.9,83,0.00,,,0.42,NetBSD+Arduino,2013-04-06 23:13:00,
2013-04-06 16:18:00,51.3,47.5,29.89,SW,225,7.5,19.4,86,0.00,,,0.42,NetBSD+Arduino,2013-04-06 23:18:00,
2013-04-06 16:23:00,50.2,46.7,29.90,South,180,10.4,16.4,87,0.00,,,0.42,NetBSD+Arduino,2013-04-06 23:23:00,
2013-04-06 16:28:00,48.8,45.6,29.90,South,180,9.0,17.9,88,0.00,,,0.42,NetBSD+Arduino,2013-04-06 23:28:00,
2013-04-06 16:34:00,47.2,45.0,29.90,SW,225,3.0,14.9,91,0.03,,,0.45,NetBSD+Arduino,2013-04-06 23:34:00,
2013-04-06 16:39:00,47.2,45.4,29.90,South,180,3.0,10.4,93,0.03,,,0.45,NetBSD+Arduino,2013-04-06 23:39:00,
2013-04-06 16:45:00,47.4,45.4,29.90,South,180,3.0,10.4,92,0.03,,,0.45,NetBSD+Arduino,2013-04-06 23:45:00,
2013-04-06 16:51:00,48.2,46.2,29.89,SW,225,4.5,9.0,92,0.03,,,0.45,NetBSD+Arduino,2013-04-06 23:51:00,
2013-04-06 16:56:00,48.5,45.8,29.89,South,180,1.5,13.4,90,0.03,,,0.45,NetBSD+Arduino,2013-04-06 23:56:00,
2013-04-06 17:01:00,48.5,46.5,29.89,South,180,1.5,9.0,92,0.03,,,0.45,NetBSD+Arduino,2013-04-07 00:01:00,
2013-04-06 17:06:00,48.4,45.8,29.89,SW,225,1.5,11.9,90,0.03,,,0.45,NetBSD+Arduino,2013-04-07 00:06:00,
2013-04-06 17:11:00,48.7,46.2,29.89,South,180,3.0,11.9,91,0.03,,,0.45,NetBSD+Arduino,2013-04-07 00:11:00,
2013-04-06 17:17:00,48.8,46.4,29.89,SW,225,3.0,16.4,91,0.03,,,0.45,NetBSD+Arduino,2013-04-07 00:17:00,
2013-04-06 17:23:00,49.1,46.3,29.89,SW,225,3.0,11.9,90,0.03,,,0.45,NetBSD+Arduino,2013-04-07 00:23:00,
2013-04-06 17:29:00,48.7,45.7,29.89,South,180,3.0,14.9,89,0.02,,,0.45,NetBSD+Arduino,2013-04-07 00:29:00,
2013-04-06 17:35:00,48.5,46.1,29.89,SW,225,7.5,10.4,91,0.00,,,0.45,NetBSD+Arduino,2013-04-07 00:35:00,
2013-04-06 17:40:00,48.2,46.5,29.89,South,180,7.5,10.4,93,0.02,,,0.46,NetBSD+Arduino,2013-04-07 00:40:00,
2013-04-06 17:45:00,46.9,44.9,29.90,SE,135,0.0,13.4,92,0.02,,,0.46,NetBSD+Arduino,2013-04-07 00:45:00,
2013-04-06 17:50:00,46.2,44.4,29.89,South,180,4.5,13.4,93,0.02,,,0.46,NetBSD+Arduino,2013-04-07 00:50:00,
2013-04-06 17:55:00,46.2,44.0,29.87,South,180,3.0,7.5,92,0.02,,,0.46,NetBSD+Arduino,2013-04-07 00:55:00,
2013-04-06 18:00:00,46.4,44.0,29.87,SW,225,1.5,9.0,91,0.02,,,0.46,NetBSD+Arduino,2013-04-07 01:00:00,
2013-04-06 18:05:00,46.7,44.5,29.87,SE,135,7.5,7.5,92,0.02,,,0.46,NetBSD+Arduino,2013-04-07 01:05:00,
2013-04-06 18:10:00,46.7,44.3,29.87,SE,135,3.0,10.4,91,0.02,,,0.46,NetBSD+Arduino,2013-04-07 01:10:00,
2013-04-06 18:16:00,46.8,44.2,29.87,South,180,4.5,11.9,90,0.02,,,0.46,NetBSD+Arduino,2013-04-07 01:16:00,
2013-04-06 18:21:00,46.8,44.2,29.87,South,180,11.9,14.9,90,0.03,,,0.48,NetBSD+Arduino,2013-04-07 01:21:00,
2013-04-06 18:26:00,46.9,44.7,29.87,SW,225,7.5,11.9,91,0.03,,,0.48,NetBSD+Arduino,2013-04-07 01:26:00,
2013-04-06 18:31:00,47.1,44.3,29.87,South,180,3.0,11.9,90,0.03,,,0.48,NetBSD+Arduino,2013-04-07 01:31:00,
2013-04-06 18:36:00,47.1,44.8,29.87,SE,135,6.0,13.4,91,0.03,,,0.48,NetBSD+Arduino,2013-04-07 01:36:00,
2013-04-06 18:41:00,46.9,44.4,29.87,South,180,6.0,10.4,90,0.02,,,0.48,NetBSD+Arduino,2013-04-07 01:41:00,
2013-04-06 18:46:00,47.0,44.8,29.87,South,180,3.0,10.4,91,0.02,,,0.48,NetBSD+Arduino,2013-04-07 01:46:00,
2013-04-06 18:51:00,47.0,44.5,29.87,South,180,6.0,7.5,90,0.02,,,0.48,NetBSD+Arduino,2013-04-07 01:51:00,
2013-04-06 18:56:00,47.0,44.5,29.86,South,180,7.5,13.4,90,0.02,,,0.48,NetBSD+Arduino,2013-04-07 01:56:00,
2013-04-06 19:02:00,47.1,44.6,29.86,West,270,1.5,11.9,90,0.02,,,0.48,NetBSD+Arduino,2013-04-07 02:02:00,
2013-04-06 19:07:00,47.2,44.9,29.86,South,180,1.5,14.9,91,0.02,,,0.48,NetBSD+Arduino,2013-04-07 02:07:00,
2013-04-06 19:13:00,47.2,44.9,29.86,South,180,10.4,14.9,91,0.02,,,0.48,NetBSD+Arduino,2013-04-07 02:13:00,
2013-04-06 19:18:00,47.1,44.6,29.86,South,180,9.0,13.4,90,0.02,,,0.48,NetBSD+Arduino,2013-04-07 02:18:00,
2013-04-06 19:23:00,46.9,44.7,29.86,SW,225,6.0,11.9,91,0.00,,,0.48,NetBSD+Arduino,2013-04-07 02:23:00,
2013-04-06 19:29:00,47.0,44.5,29.86,South,180,3.0,13.4,90,0.00,,,0.48,NetBSD+Arduino,2013-04-07 02:29:00,
2013-04-06 19:34:00,46.9,44.7,29.86,South,180,4.5,11.9,91,0.00,,,0.48,NetBSD+Arduino,2013-04-07 02:34:00,
2013-04-06 19:39:00,46.9,44.6,29.86,South,180,4.5,17.9,91,0.00,,,0.48,NetBSD+Arduino,2013-04-07 02:39:00,
2013-04-06 19:45:00,46.8,44.5,29.85,South,180,10.4,11.9,91,0.00,,,0.48,NetBSD+Arduino,2013-04-07 02:45:00,
2013-04-06 19:50:00,46.8,44.8,29.85,South,180,3.0,13.4,92,0.00,,,0.48,NetBSD+Arduino,2013-04-07 02:50:00,
2013-04-06 19:56:00,46.7,44.2,29.84,South,180,4.5,11.9,90,0.00,,,0.48,NetBSD+Arduino,2013-04-07 02:56:00,
2013-04-06 20:02:00,46.5,44.3,29.84,South,180,6.0,7.5,92,0.00,,,0.48,NetBSD+Arduino,2013-04-07 03:02:00,
2013-04-06 20:08:00,46.4,44.2,29.84,SE,135,3.0,7.5,91,0.00,,,0.48,NetBSD+Arduino,2013-04-07 03:08:00,
2013-04-06 20:13:00,46.4,44.3,29.84,SE,135,4.5,9.0,92,0.00,,,0.48,NetBSD+Arduino,2013-04-07 03:13:00,
2013-04-06 20:18:00,46.2,44.4,29.84,SE,135,1.5,7.5,93,0.00,,,0.48,NetBSD+Arduino,2013-04-07 03:18:00,
2013-04-06 20:23:00,46.0,44.6,29.84,South,180,4.5,7.5,94,0.00,,,0.48,NetBSD+Arduino,2013-04-07 03:23:00,
2013-04-06 20:28:00,45.9,44.5,29.84,East,90,1.5,7.5,94,0.00,,,0.48,NetBSD+Arduino,2013-04-07 03:28:00,
2013-04-06 20:33:00,45.9,44.5,29.84,South,180,0.0,7.5,94,0.00,,,0.48,NetBSD+Arduino,2013-04-07 03:33:00,
2013-04-06 20:38:00,45.9,44.3,29.84,SE,135,4.5,7.5,94,0.00,,,0.48,NetBSD+Arduino,2013-04-07 03:38:00,
2013-04-06 20:43:00,46.1,44.0,29.84,South,180,9.0,11.9,92,0.00,,,0.48,NetBSD+Arduino,2013-04-07 03:43:00,
2013-04-06 20:48:00,46.2,43.7,29.84,South,180,4.5,9.0,90,0.00,,,0.48,NetBSD+Arduino,2013-04-07 03:48:00,
2013-04-06 20:53:00,46.2,43.9,29.84,South,180,1.5,9.0,91,0.00,,,0.48,NetBSD+Arduino,2013-04-07 03:53:00,
2013-04-06 20:58:00,46.1,43.4,29.83,East,90,4.5,6.0,90,0.00,,,0.48,NetBSD+Arduino,2013-04-07 03:58:00,
2013-04-06 21:01:00,46.1,43.8,29.83,SE,135,6.0,7.5,91,0.00,,,0.48,NetBSD+Arduino,2013-04-07 04:01:00,
2013-04-06 21:02:00,46.1,43.5,29.83,SE,135,1.5,9.0,90,0.00,,,0.48,NetBSD+Arduino,2013-04-07 04:02:00,
2013-04-06 21:03:00,46.1,43.5,29.83,SE,135,3.0,9.0,90,0.00,,,0.48,NetBSD+Arduino,2013-04-07 04:03:00,
2013-04-06 21:04:00,46.1,43.5,29.83,South,180,1.5,9.0,90,0.00,,,0.48,NetBSD+Arduino,2013-04-07 04:04:00,
2013-04-06 21:09:00,46.2,44.1,29.83,East,90,0.0,7.5,92,0.00,,,0.48,NetBSD+Arduino,2013-04-07 04:09:00,
2013-04-06 21:15:00,46.0,43.9,29.83,South,180,4.5,7.5,92,0.00,,,0.48,NetBSD+Arduino,2013-04-07 04:15:00,
2013-04-06 21:20:00,46.0,44.0,29.83,South,180,3.0,7.5,92,0.00,,,0.48,NetBSD+Arduino,2013-04-07 04:20:00,
2013-04-06 21:25:00,45.9,44.3,29.83,South,180,4.5,9.0,94,0.00,,,0.48,NetBSD+Arduino,2013-04-07 04:25:00,
2013-04-06 21:31:00,46.1,44.6,29.82,South,180,3.0,11.9,94,0.00,,,0.48,NetBSD+Arduino,2013-04-07 04:31:00,
2013-04-06 21:36:00,46.2,44.8,29.82,SE,135,4.5,9.0,94,0.00,,,0.48,NetBSD+Arduino,2013-04-07 04:36:00,
2013-04-06 21:42:00,46.2,44.6,29.82,South,180,7.5,11.9,94,0.00,,,0.48,NetBSD+Arduino,2013-04-07 04:42:00,
2013-04-06 21:47:00,46.1,44.7,29.82,SE,135,3.0,11.9,94,0.00,,,0.48,NetBSD+Arduino,2013-04-07 04:47:00,
2013-04-06 21:52:00,46.1,44.5,29.82,South,180,4.5,9.0,94,0.00,,,0.48,NetBSD+Arduino,2013-04-07 04:52:00,
2013-04-06 21:57:00,45.9,44.3,29.82,South,180,6.0,13.4,94,0.00,,,0.48,NetBSD+Arduino,2013-04-07 04:57:00,
2013-04-06 22:03:00,45.9,44.3,29.81,South,180,4.5,10.4,94,0.00,,,0.48,NetBSD+Arduino,2013-04-07 05:03:00,
2013-04-06 22:08:00,45.8,44.2,29.81,South,180,4.5,13.4,94,0.00,,,0.48,NetBSD+Arduino,2013-04-07 05:08:00,
2013-04-06 22:13:00,45.6,44.2,29.81,South,180,1.5,11.9,94,0.00,,,0.48,NetBSD+Arduino,2013-04-07 05:13:00,
2013-04-06 22:18:00,45.6,44.0,29.81,South,180,9.0,10.4,94,0.00,,,0.48,NetBSD+Arduino,2013-04-07 05:18:00,
2013-04-06 22:23:00,45.6,44.0,29.81,SE,135,9.0,11.9,94,0.00,,,0.48,NetBSD+Arduino,2013-04-07 05:23:00,
2013-04-06 22:28:00,45.6,44.0,29.81,South,180,1.5,9.0,94,0.00,,,0.48,NetBSD+Arduino,2013-04-07 05:28:00,
2013-04-06 22:34:00,45.6,44.2,29.81,East,90,1.5,7.5,94,0.00,,,0.48,NetBSD+Arduino,2013-04-07 05:34:00,
2013-04-06 22:39:00,45.6,44.2,29.80,South,180,3.0,6.0,94,0.00,,,0.48,NetBSD+Arduino,2013-04-07 05:39:00,
2013-04-06 22:45:00,45.5,44.4,29.80,SE,135,3.0,7.5,96,0.00,,,0.48,NetBSD+Arduino,2013-04-07 05:45:00,
2013-04-06 22:50:00,45.5,44.3,29.80,South,180,4.5,9.0,95,0.00,,,0.48,NetBSD+Arduino,2013-04-07 05:50:00,
2013-04-06 22:56:00,45.3,44.4,29.79,South,180,4.5,7.5,96,0.00,,,0.48,NetBSD+Arduino,2013-04-07 05:56:00,
2013-04-06 23:01:00,45.2,44.2,29.79,SE,135,4.5,9.0,96,0.00,,,0.48,NetBSD+Arduino,2013-04-07 06:01:00,
2013-04-06 23:06:00,45.1,44.3,29.79,East,90,3.0,9.0,97,0.00,,,0.48,NetBSD+Arduino,2013-04-07 06:06:00,
2013-04-06 23:11:00,45.0,44.2,29.79,East,90,1.5,10.4,97,0.00,,,0.48,NetBSD+Arduino,2013-04-07 06:11:00,
2013-04-06 23:16:00,44.9,44.2,29.78,South,180,3.0,6.0,97,0.00,,,0.48,NetBSD+Arduino,2013-04-07 06:16:00,
2013-04-06 23:21:00,44.8,44.1,29.78,SE,135,4.5,9.0,97,0.00,,,0.48,NetBSD+Arduino,2013-04-07 06:21:00,
2013-04-06 23:26:00,44.8,44.0,29.77,South,180,3.0,7.5,97,0.00,,,0.48,NetBSD+Arduino,2013-04-07 06:26:00,
2013-04-06 23:31:00,44.8,44.2,29.77,SE,135,1.5,7.5,97,0.00,,,0.48,NetBSD+Arduino,2013-04-07 06:31:00,
2013-04-06 23:36:00,44.8,44.1,29.77,South,180,3.0,4.5,97,0.00,,,0.48,NetBSD+Arduino,2013-04-07 06:36:00,
2013-04-06 23:41:00,44.8,44.2,29.77,South,180,0.0,3.0,97,0.00,,,0.48,NetBSD+Arduino,2013-04-07 06:41:00,
2013-04-06 23:46:00,44.7,43.9,29.76,SE,135,1.5,3.0,97,0.00,,,0.48,NetBSD+Arduino,2013-04-07 06:46:00,
2013-04-06 23:51:00,44.6,43.8,29.76,South,180,4.5,6.0,97,0.00,,,0.48,NetBSD+Arduino,2013-04-07 06:51:00,
2013-04-06 23:56:00,44.6,44.1,29.75,East,90,1.5,6.0,97,0.00,,,0.48,NetBSD+Arduino,2013-04-07 06:56:00,